Location: Starry Hill Observatory
(46.8582°N, 122.3590°W)
Time: 19:36:27
(UTC-07:00)

Daily predictions for brighter satellites

Satellite Brightness Start Highest point End
(mag) Time Altitude Azimuth Time Altitude Azimuth Time Altitude Azimuth
Cosmos 1943 Rocket 3.4 20:27:59 10° SW 20:33:24 48° WNW 20:38:55 10° NNE
Cosmos 2082 4.2 20:28:09 10° NNW 20:33:33 45° NE 20:38:55 10° SE
ERS-1 Rocket 3.7 20:29:14 10° SE 20:33:47 36° ENE 20:38:21 10° N
FENGYUN 3A 3.7 20:30:48 10° SSE 20:36:09 87° ENE 20:41:32 10° NNW
Cosmos 2297 Rocket 2.9 20:32:21 10° NNW 20:37:39 39° NE 20:42:55 10° ESE
Meteor 1-11 Rocket 4.0 20:32:14 10° SSW 20:37:49 77° WNW 20:43:23 10° N
Cosmos 1461 3.4 20:34:41 10° NNW 20:38:41 44° NE 20:42:31 10° ESE
Cosmos 1975 4.3 20:37:19 10° SE 20:40:20 20° E 20:43:23 10° NE
Cosmos 1934 Rocket 4.1 20:34:58 10° S 20:40:56 59° E 20:47:02 10° NNE
NOSS 2-1 (D) 3.7 20:37:48 10° SSW 20:41:32 46° ESE 20:45:50 10° NE
NOSS 2-1 (C) 3.7 20:38:49 10° SSW 20:42:33 46° ESE 20:46:52 10° NE
Lacrosse 5 rocket 1.6 20:46:07 10° NW 20:49:48 47° NNE 20:53:07 11° ESE
Cosmos 1315 Rocket 3.6 20:49:01 10° SSW 20:52:57 56° WNW 20:56:58 10° N
Cosmos 1544 Rocket 3.5 20:50:00 10° S 20:54:21 78° E 20:58:47 10° NNE
Cosmos 1777 Rocket 4.4 20:49:59 10° NNW 20:55:13 69° WSW 21:00:26 10° S
EO 1 Delta rocket 3.8 20:53:31 10° NNE 20:58:09 78° E 21:03:08 10° S
NOSS 2-1 (E) 3.4 20:54:35 10° SSW 20:58:28 61° SE 21:03:04 10° NE
ATLAS CENTAUR R/B 2.9 20:58:36 10° WSW 21:03:29 48° NW 21:08:15 10° NNE
Cosmos 2208 Rocket 4.1 21:00:24 10° S 21:05:36 59° ESE 21:10:55 10° NNE
Cosmos 1939 Rocket 3.1 21:05:19 10° SSE 21:09:19 55° ENE 21:13:24 10° N
YAOGAN 6 4.1 21:09:19 16° ESE 21:11:07 22° ENE 21:14:01 10° NNE
H-2A R/B 4.2 21:09:26 10° SSW 21:13:05 40° W 21:16:48 10° NNW
ALOS 3.7 21:09:04 10° SSW 21:13:27 39° W 21:17:51 10° NNW
Lacrosse 5 2.6 21:13:27 10° NW 21:18:20 45° NNE 21:22:12 15° E
Cosmos 2278 3.7 21:13:19 10° S 21:18:53 62° ESE 21:24:31 10° NNE
Cosmos 1821 Rocket 4.5 21:13:24 10° SSW 21:19:27 63° WNW 21:25:31 10° N
USA 215 3.7 21:13:51 13° E 21:19:42 57° NNE 21:26:05 10° NW
BREEZE-M DEB (TANK) 1.5 21:19:13 10° WNW 21:21:17 73° NNE 21:23:22 20° E
Cosmos 1697 Rocket 3.6 21:17:07 10° SSE 21:21:40 25° ESE 21:26:12 10° NE
Cosmos 1605 Rocket 4.0 21:15:49 10° S 21:22:11 84° E 21:28:29 10° N
YAOGAN 11 4.3 21:18:35 10° S 21:23:07 76° WSW 21:27:37 10° NNW
H-2A R/B 3.8 21:21:51 12° E 21:24:03 16° ENE 21:27:02 10° NNE
Cosmos 1570 Rocket 4.0 21:20:01 10° SSW 21:25:19 89° WNW 21:30:38 10° NNE
SPOT 5 3.2 21:22:12 17° SE 21:25:58 50° ENE 21:30:41 10° N
Cosmos 2100 Rocket 4.4 21:21:27 10° SSE 21:27:18 42° E 21:33:06 10° NNE
Cosmos 2369 3.6 21:25:48 10° SSW 21:31:26 69° ESE 21:37:07 10° NNE
Envisat 3.0 21:28:27 12° SSE 21:33:11 87° ENE 21:38:19 10° NNW
Cosmos 1825 Rocket 4.3 21:29:30 10° N 21:33:38 36° ENE 21:35:28 25° ESE
Cosmos 1346 Rocket 4.2 21:30:07 10° NNW 21:33:46 37° W 21:37:26 10° SSW
NOSS 3-4 (A) 4.4 21:27:34 10° NW 21:34:22 55° WSW 21:41:07 12° SSE
NOSS 3-4 (C) 4.3 21:27:41 10° NW 21:34:29 55° WSW 21:41:12 12° SSE
RESURS DK-1 3.3 21:30:44 10° NNW 21:34:32 33° NE 21:36:17 23° E
Cosmos 1937 Rocket 3.9 21:30:40 10° NNW 21:35:45 47° ENE 21:38:37 24° ESE
DELTA 2 R/B (1) 4.2 21:32:09 10° WSW 21:37:17 39° S 21:39:57 24° SE
Cosmos 2150 Rocket 4.0 21:32:34 10° NNW 21:37:42 62° ENE 21:40:45 24° SE
CZ-4 DEB 4.1 21:35:57 10° SSW 21:38:53 37° W 21:41:52 10° NNW
NOSS 7 (D) 4.2 21:36:38 10° SSW 21:40:00 74° SE 21:43:27 10° NE
Cosmos 1953 Rocket 4.5 21:37:15 10° N 21:41:16 32° ENE 21:42:38 27° ESE
SPOT 1/Viking Rocket 4.1 21:39:37 24° SE 21:42:19 43° ENE 21:47:15 10° N
Cosmos 1980 Rocket 3.2 21:42:25 23° ESE 21:42:55 23° ESE 21:47:18 10° NE
deb Chang Zheng 4 3.6 21:42:22 10° NNE 21:46:50 65° ESE 21:50:42 13° S
H-2A R/B 1.9 21:46:32 23° SSE 21:49:04 83° WSW 21:53:14 10° NNW
Tiangong 1 1.8 21:46:24 10° WSW 21:49:04 36° S 21:49:04 36° S
Cosmos 1626 Rocket 4.3 21:47:09 10° NNW 21:51:29 52° W 21:55:29 11° S
Cosmos 1666 4.5 21:52:58 17° ENE 21:52:58 17° ENE 21:54:41 10° NE
ARGOS 3.5 21:49:43 28° SE 21:52:17 49° ENE 21:57:28 10° N
PSLV R/B 3.1 21:54:25 57° E 21:54:39 60° ENE 21:57:40 10° N
Cosmos 990 Rocket 4.3 21:49:39 10° NNW 21:54:47 50° ENE 21:56:56 31° ESE
CZ-4 SHROUD 3.3 21:55:50 53° E 21:55:59 54° ENE 21:59:00 10° N
Iridium 4 Rocket 4.1 21:51:21 10° N 21:56:36 56° W 22:01:20 10° SSW
ASTEX 1 3.5 21:52:03 10° NNE 21:56:59 54° E 21:59:13 30° SSE
Cosmos 972 Rocket 4.3 21:52:16 10° NNW 21:57:58 78° ENE 22:01:34 27° SSE
Cosmos 1758 Rocket 4.0 21:56:36 10° N 22:00:47 42° ENE 22:01:37 37° ESE
Cosmos 1500 3.2 21:59:56 21° SSW 22:02:20 79° W 22:06:08 10° N
OTV 4 3.2 22:02:31 10° SW 22:02:32 10° SW 22:02:32 10° SW
CZ-4B R/B 3.8 22:00:04 10° NNE 22:04:29 37° E 22:04:55 36° ESE
Cosmos 2227 Rocket 3.4 22:00:28 10° NW 22:05:38 37° WSW 22:10:12 13° S
SL-24 R/B - RUBIN 2 4.4 22:01:30 10° SSW 22:07:19 62° ESE 22:13:46 10° NE
Cosmos 1898 Rocket 3.7 22:02:56 10° NNW 22:08:16 72° WSW 22:10:58 29° S
Cosmos 2263 Rocket 3.9 22:06:23 10° N 22:10:28 20° NE 22:12:49 16° ENE
Cosmos 1459 Rocket 3.8 22:05:25 15° S 22:10:28 81° E 22:16:36 10° N
ERS-1 Rocket 4.5 22:08:05 10° SSW 22:12:34 32° W 22:17:05 10° NNW
Cosmos 2322 Rocket 4.1 22:15:26 13° ENE 22:15:26 13° ENE 22:16:32 10° ENE
Cosmos 1125 Rocket 4.4 22:09:34 10° N 22:14:17 33° ENE 22:15:34 29° E
Terra 2.7 22:14:41 31° E 22:15:25 33° ENE 22:19:40 10° N
MetOp-B 4.3 22:12:24 26° S 22:15:27 72° WSW 22:20:50 10° NNW
Cosmos 2228 4.4 22:17:03 24° ENE 22:17:03 24° ENE 22:19:41 10° NNE
Cosmos 1975 4.4 22:12:49 10° SW 22:16:38 36° WNW 22:20:28 10° N
Cosmos 1340 2.5 22:13:40 10° N 22:17:29 81° E 22:17:51 70° SE
SL-08 RB Rocket 3.7 22:19:17 49° SE 22:20:24 69° ENE 22:25:03 10° N
Cosmos 2227 4.3 22:15:14 10° NNW 22:20:58 63° ENE 22:22:49 42° ESE
Cosmos 2058 Rocket 3.5 22:21:20 44° E 22:21:20 44° E 22:25:34 10° NNE
Cosmos 2297 Rocket 3.3 22:16:29 10° NW 22:21:41 38° WSW 22:25:13 19° SSW
Meteor 2-9 Rocket 4.5 22:20:54 41° ESE 22:21:42 44° E 22:26:51 10° NNE
Cosmos 1763 Rocket 3.7 22:25:14 45° ESE 22:25:14 45° ESE 22:30:03 10° NNE
Cosmos 1656 3.7 22:20:34 10° SSW 22:26:12 80° WNW 22:31:48 10° NNE
IGS 5A 4.4 22:28:21 34° ENE 22:28:21 34° ENE 22:31:57 10° N
Cosmos 1802 Rocket 4.0 22:23:41 19° S 22:28:25 88° W 22:34:54 10° N
Lacrosse 5 rocket 2.5 22:25:43 10° WNW 22:28:50 26° SW 22:28:51 26° SW
Cosmos 1743 3.0 22:29:47 48° SW 22:30:43 68° W 22:34:38 10° N
Cosmos 468 Rocket 4.0 22:29:56 14° SSW 22:34:20 77° WNW 22:39:30 10° NNE
Cosmos 1606 Rocket 3.5 22:35:54 57° SSW 22:36:46 83° W 22:41:14 10° N
Cosmos 2084 4.0 22:33:30 10° NW 22:37:22 43° WSW 22:37:37 42° SW
SL-08 R/B 4.4 22:35:01 36° S 22:37:47 79° E 22:44:00 10° N
Cosmos 1814 Rocket 4.0 22:36:45 21° SSW 22:40:23 81° WNW 22:45:44 10° NNE
Cosmos 1842 3.3 22:39:03 10° N 22:42:44 77° NNW 22:42:44 77° NNW
Cosmos 841 Rocket 3.5 22:44:08 59° ESE 22:44:08 59° ESE 22:49:17 10° NNE
YAOGAN 6 4.2 22:43:48 27° WSW 22:44:33 29° W 22:47:50 10° NNW
CARTOSAT-1 3.7 22:47:47 62° NE 22:47:47 62° NE 22:51:51 10° N
Cosmos 2016 Rocket 4.1 22:48:24 27° SSW 22:51:55 70° W 22:58:07 10° N
BREEZE-M TANK 4.2 22:47:32 10° W 22:53:00 25° SW 22:53:01 25° SW
GEOS 3 Rocket 3.5 22:55:33 10° NE 23:00:42 87° NW 23:03:18 30° SW
Lacrosse 5 2.2 22:56:30 10° WNW 23:01:23 50° SW 23:01:23 50° SW
Cosmos 1726 Rocket 4.1 23:01:16 49° WSW 23:01:52 54° WNW 23:06:12 10° N
USA 215 3.4 23:01:12 48° S 23:02:43 59° SW 23:09:10 10° WNW
H-2A R/B 1.8 23:02:30 73° SSW 23:02:54 80° WSW 23:07:53 10° NNW
Meteor 2-5 Rocket 4.0 22:58:33 10° N 23:04:23 53° ENE 23:04:49 52° E
Cosmos 1697 Rocket 3.3 22:59:42 10° SW 23:05:15 56° WNW 23:10:50 10° NNE
SL-16 R/B 3.2 23:07:59 32° ENE 23:07:59 32° ENE 23:11:33 10° NE
Meteor 1-15 Rocket 4.2 23:06:00 59° S 23:07:13 90° WNW 23:13:09 10° N
Cosmos 2098 Rocket 4.2 23:04:30 33° SSW 23:07:55 73° W 23:14:01 10° N
RESURS DK-1 4.0 23:08:59 10° NW 23:12:13 27° W 23:12:13 27° W
Tsikada Rocket 4.3 23:06:11 10° NNW 23:12:33 65° W 23:14:25 45° SSW
Cosmos 372 Rocket 4.1 23:12:51 10° NNW 23:17:42 65° NE 23:17:42 65° NE
CZ-4C R/B 4.3 23:21:56 48° W 23:21:56 48° W 23:25:58 10° NNW
GP-B 3.7 23:21:23 10° N 23:24:49 53° N 23:24:49 53° N
Cosmos 1980 Rocket 2.6 23:24:06 34° SW 23:26:27 61° WNW 23:32:08 10° NNE
Cosmos 2360 Rocket 4.1 23:29:54 17° ENE 23:29:54 17° ENE 23:31:40 10° NE
Cosmos 1666 4.4 23:27:57 30° WNW 23:27:57 30° WNW 23:30:52 10° N
Meteor 1-24 Rocket 4.0 23:33:34 10° N 23:39:26 60° ENE 23:39:26 60° ENE
ALOS 2 4.3 23:49:56 26° NE 23:49:56 26° NE 23:52:31 10° N
Terra 3.2 23:53:34 32° W 23:53:34 32° W 23:57:25 10° NNW
